Location: Unspecified
(0.0000°N, 0.0000°E)
Time: 09:39:32
(UTC+00:00)

SRMSAT - Pass Details

Date: 04 April 2019
Orbit: 849 x 865 km, 20.0° (Epoch: 26 April)

Event Time Altitude Azimuth Distance (km) Brightness Sun altitude
Rises 20:37:30 0° 263° (W) 3,417 ? -38.4°
Reaches altitude 10° 20:40:12 10° 270° (W) 2,477 ? -39.1°
Enters shadow 20:42:57 26° 286° (WNW) 1,628 ? -39.7°
